Volver al catálogo

STARLINK-31110

ActivoComunicacionesVLEO
NORAD 58679·PAYLOAD·🇺🇸 United States

Lanzado Dec 29, 2023 desde Cape Canaveral Space Force Station

Loading…

Próximos Pases (próximas 24 horas)

TLE

ActualizadoSource: CelesTrak SupGP

Época: Sep 15, 2026, 03:11 UTC

1 58679C 23211N   26258.13312500  .00005516  00000+0  19981-3 0  2587
2 58679  43.0001  95.2354 0001517 275.5634 293.0005 15.27574146    11

Sigue STARLINK-31110 en tiempo real con AllMySat

Download on the App Store